Regional Weather Roundup
Issued by NWS

Home | Current Version | Previous Version | Text Only | Print | Product List | Glossary Off
Versions: 1 2 3 4 5 6 7 8 9 10 11 12 13 14 15 16 17 18 19 20 21 22 23 24 25 26 27 28 29 30 31 32 33 34 35 36 37 38 39 40 41 42 43 44 45 46 47 48 49 50

000
ASUS43 KLOT 051408
RWRIL

ILLINOIS REGIONAL WEATHER ROUNDUP
NATIONAL WEATHER SERVICE CHICAGO/ROMEOVILLE IL
900 AM CDT TUE MAY 05 2015

NOTE: "FAIR" INDICATES FEW OR NO CLOUDS BELOW 12,000 FEET WITH NO
SIGNIFICANT WEATHER AND/OR OBSTRUCTIONS TO VISIBILITY.

* THESE STATIONS ARE NOT UNDER NWS QUALITY CONTROL. THEY ALSO MAY NOT
  REPORT WEATHER SUCH AS PRECIPITATION OR FOG.

ILZ001-002-007-009-015-016-024-051500-
NORTHWEST ILLINOIS

CITY           SKY/WX    TMP DP  RH WIND       PRES   REMARKS
MOLINE         CLOUDY    59  57  93 E7        30.17R FOG
STERLING*      CLOUDY    57  54  88 E7        30.20R
$$

ILZ003-004-008-010-011-017-018-051500-
NORTH CENTRAL ILLINOIS

CITY           SKY/WX    TMP DP  RH WIND       PRES   REMARKS
ROCKFORD       LGT RAIN  55  51  86 E6        30.24R
FREEPORT*      CLOUDY    52  50  94 NE10      30.23R
ROCHELLE*      CLOUDY    56  54  94 E6        30.21R
DE KALB*       CLOUDY    54  53  95 E9        30.21R
PERU*          CLOUDY    58  57  97 NE5       30.20R FOG
$$

ILZ005-006-012>014-019>023-051500-
NORTHEAST ILLINOIS

CITY           SKY/WX    TMP DP  RH WIND       PRES   REMARKS
CHICAGO-OHARE  CLOUDY    51  50  96 NE8       30.21R
CHICAGO-MIDWAY LGT RAIN  52  50  93 E12       30.21R FOG
AURORA         CLOUDY    56  52  86 E9        30.20R FOG
LANSING*       CLOUDY    50  48  92 N6        30.22R FOG
JOLIET*        LGT RAIN  57  56  97 E6        30.20R
WAUKEGAN       LGT RAIN  47  46  97 NE9       30.23R
DUPAGE AIRPORT CLOUDY    55  53  93 E10       30.20R
KANKAKEE*      PTSUNNY   66  63  90 SE10      30.19S
WHEELING       LGT RAIN  50  48  93 E7        30.24R
MORRIS*        CLOUDY    57  55  95 E5        30.16S FOG
ROMEOVILLE*    CLOUDY    55  55 100 E10       30.20R FOG
NORTHERLY ISL    N/A     47  45  93 S1          N/A
$$

LMZ740>746-051500-
SOUTHERN LAKE MICHIGAN

STATION/POSITION SKY/WX   TEMP    WIND        PRES    VSBY  WAVE
                          AIR SEA DIR/SP/G                  HT/PER
                          (F)     (DEG/KT/KT) (MB)    (MI)  (FT/S)
HARRISON CRIB              46      40/ 18/ 21   N/A
BURNHAM HARBOR             47      60/  5/ 11   N/A
CALUMET HARBOR             46      10/  6/  9   N/A
BURNS HARBOR               49      70/ 12/ 14 1022.7F
MICHIGAN CITY              48      10/ 10/ 11   N/A
MICHIGAN CITY 6N           49 49   70/ 12/ 14   N/A           2/ 2
ST. JOSEPH                 52 49  100/ 10/ 12   N/A           1/ 2
$$

ILZ025>027-034>036-040-047-049-050-058-095>099-051500-
WEST-CENTRAL ILLINOIS

CITY           SKY/WX    TMP DP  RH WIND       PRES   REMARKS
QUINCY         MOSUNNY   70  60  70 SW8       30.15S
GALESBURG*     CLOUDY    64  62  91 SE6       30.17R FOG
MACOMB*        PTSUNNY   66  64  94 SE10      30.18S FOG
JACKSONVILLE*  SUNNY     74  58  56 S9        30.17R
PITTSFIELD*    PTSUNNY   74  58  55 SW9       30.17R
$$

ILZ028>032-037-038-041>044-048-051>054-059>061-051500-
CENTRAL ILLINOIS

CITY           SKY/WX    TMP DP  RH WIND       PRES   REMARKS
PONTIAC        CLOUDY    66  64  93 SE12      30.18S FOG
BLOOMINGTON    PTSUNNY   69  64  84 S8        30.19R
DECATUR        PTSUNNY   70  57  63 SW8       30.20R
PEORIA         CLOUDY    67  61  81 VRB3      30.17R HAZE
LACON*         PTSUNNY   64  61  88 SE7       30.18R FOG
LINCOLN*       MOSUNNY   72  60  65 S7        30.16R
SPRINGFIELD    SUNNY     74  58  57 S10       30.17S
TAYLORVILLE    PTSUNNY   68  55  64 S7        30.20R
$$

ILZ033-039-045-046-055>057-062-063-051500-
EAST-CENTRAL ILLINOIS

CITY           SKY/WX    TMP DP  RH WIND       PRES   REMARKS
CHAMPAIGN      PTSUNNY   70  55  59 SW8       30.20R
DANVILLE*      PTSUNNY   69  58  67 SW5       30.18S
RANTOUL*       PTSUNNY   69  61  75 SW6       30.19S
MATTOON        PTSUNNY   72  55  55 SW9       30.20R
PARIS*         MOSUNNY   76  54  46 SW17      30.22R
$$

ILZ079-100>102-051500-
SOUTHWEST ILLINOIS

CITY           SKY/WX    TMP DP  RH WIND       PRES   REMARKS
ALTON          PTSUNNY   70 N/A N/A SW9       30.20R
BELLEVILLE     MOSUNNY   71  57  62 CALM      30.20R
CAHOKIA*       PTSUNNY   72  55  55 SW6       30.20R
SPARTA*        SUNNY     70  56  60 S9        30.23R
$$

ILZ064>066-069>071-074>076-080>082-084>086-088>090-092>094-051500-
SOUTH-CENTRAL ILLINOIS

CITY           SKY/WX    TMP DP  RH WIND       PRES   REMARKS
CARBONDALE     MOSUNNY   71  57  61 SW7       30.23R
CAIRO*         SUNNY     71  56  59 S5        30.24S
EFFINGHAM*     MOSUNNY   73  51  46 S8        30.23S
MARION         MOSUNNY   73  57  56 S9        30.24S
MT. VERNON     MOSUNNY  N/A N/A N/A SW9       30.23S
CENTRALIA*     MOSUNNY   75  54  47 S8        30.22R
SALEM*         MOSUNNY   71  54  54 S9        30.22S
METROPOLIS*    PTSUNNY   74  58  56 S7        30.24S
$$

ILZ067-068-072-073-078-083-087-091-051500-
SOUTHEAST ILLINOIS

CITY           SKY/WX    TMP DP  RH WIND       PRES   REMARKS
LAWRENCEVILLE  SUNNY     74  55  51 SW13      30.23S
FLORA*         SUNNY     74  56  53 SW10      30.23R
FAIRFIELD*     MOSUNNY   73  56  55 SW9       30.22S
HARRISBURG*    SUNNY     73  56  55 SW8       30.25S
ROBINSON*      SUNNY     74  55  51 SW12      30.23S
CARMI*         SUNNY     74  50  43 SW13      30.24R
$$

ABBREVIATIONS USED IN REMARKS
   TC - TEMPERATURE IN CELSIUS
  WCI - WIND CHILL INDEX
   HX - HEAT INDEX
  VSB - VISIBILITY
$$




USA.gov is the U.S. government's official web portal to all federal, state and local government web resources and services.